map of ORN home
ORN - Airport
Location
City:  Oran, Oran, Algeria
Near (Alt.):Es SÚnia
Name:Es SÚnia International Airport
Old (Alt.):Ahmed Ben Bella AB
ICAO:DAOO
IATA:ORN

Details
Type:Airport (Aerodrome, Airfield)
Use:Public/Civil, Military, International (customs port of entry)
Latitude:35░37'38"N (35.627222)
Longitude:0░36'41"W (-0.611388)
Elevation:299 ft (91 m)
Variation:0.24░E (WMM2015 magnetic declination)
0.11░ annual change
Runways:2
Longest:10039 × 148 ft (3060 × 45 m)

Time
Time Zone:UTC+1
Local Time:

Weather
METAR:DAOO 221130Z 23005KT 8000 FEW013 BKN026 23/19 Q1020
TAF:DAOO 220500Z 2206/2306 27005KT CAVOK
TEMPO 2206/2209 1500 BR SCT010 PROB40
TEMPO 2206/2208 0200 FG
BECMG 2212/2214 36011KT

Related Locations
Nearby:
Farthest:NZOP: 12232 mi / 19686 km
Opotiki, BOP, NZ

Find:

   beyond  
but within

Other Information
Maps:
NOTAMs:
Links:
Sources:

  
  • flag of Algeria
  

Sectional Chart

Flight Planning
at skyvector.com

Satellite Image

Google Maps Satellite view

 

Copyright © 2004-2018 Karl L. Swartz. All rights reserved.
The Great Circle Mapper name and logo are trademarks of the Great Circle Mapper.
All other trademarks mentioned herein belong to their respective owners.
Please see credits for attibutions and further copyright information.

  Follow gcmap on Facebook Follow gcmap on Twitter Follow gcmap on Google+ GCmap on LinkedIn

hCard Microformat

Geo Microformat